Weather History for KMDH - October, 2011

Change the Weather History Date:

Thursday, October 6, 2011

  Actual Average Record
Temperature  
Mean Temperature 66 °F -  
Max Temperature 82 °F 74 °F 91 °F (1916)
Min Temperature 50 °F 47 °F 29 °F (1980)
Cooling Degree Days 1    
Growing Degree Days 16 (Base 50)    
Moisture  
Dew Point 53 °F    
Average Humidity 74    
Maximum Humidity 94    
Minimum Humidity 39    
Precipitation  
Precipitation 0.00 in - - ()
Sea Level Pressure  
Sea Level Pressure 30.21 in    
Wind  
Wind Speed 2 mph (SSE)    
Max Wind Speed 10 mph    
Max Gust Speed -    
Visibility 7 miles    
Events      
Averages and records for this station are not official NWS values.
T = Trace of Precipitation, MM = Missing Value Source: NWS Daily Summary

Daily Weather History Graph

Daily Weather History Graph

Search for Another Location

Airport or City:

Trip Planner

Search our weather history database for the weather conditions in past years. The results will help you decide how hot, cold, wet, or windy it might be!

Date:

Astronomy

Oct. 06, 2011 Rise Set
Actual Time 6:56 AM CDT 6:32 PM CDT
Civil Twilight 6:30 AM CDT 6:59 PM CDT
Nautical Twilight 6:00 AM CDT 7:29 PM CDT
Astronomical Twilight 5:29 AM CDT 7:59 PM CDT
Moon 3:41 PM CDT (10/6) 1:50 AM CDT (10/6)
Length of Visible Light 12h 28m
Length of Day
11h 36m
Waxing Gibbous, 75% of the Moon is Illuminated
Oct 6
Waxing Gibbous
Oct 11
Full
Oct 19
Last Quarter
Oct 26
New
Nov 2
First Quarter

Hourly Weather History & Observations

Time (CDT) Temp. Heat Index Dew Point Humidity Pressure Visibility Wind Dir Wind Speed Gust Speed Precip Events Conditions
12:52 AM 53.1 °F - 51.1 °F 93% 30.18 in 4.0 mi Calm Calm - N/A   Clear
1:52 AM 53.1 °F - 51.1 °F 93% 30.18 in 4.0 mi Calm Calm - N/A   Clear
2:33 AM 51.8 °F - 48.2 °F 88% 30.19 in 3.0 mi Calm Calm - N/A   Clear
2:52 AM 52.0 °F - 50.0 °F 93% 30.19 in 4.0 mi Calm Calm - N/A   Clear
4:52 AM 50.0 °F - 48.0 °F 93% 30.19 in 4.0 mi Calm Calm - N/A   Clear
5:52 AM 50.0 °F - 48.0 °F 93% 30.20 in 4.0 mi Calm Calm - N/A   Clear
7:03 AM 50.0 °F - 48.2 °F 94% 30.23 in 3.0 mi Calm Calm - N/A   Clear
7:13 AM 50.0 °F - 48.2 °F 94% 30.23 in 1.8 mi Calm Calm - N/A   Clear
7:31 AM 51.8 °F - 48.2 °F 88% 30.23 in 2.0 mi Calm Calm - N/A   Clear
7:42 AM 51.8 °F - 50.0 °F 94% 30.23 in 4.0 mi Calm Calm - N/A   Clear
7:52 AM 52.0 °F - 50.0 °F 93% 30.24 in 4.0 mi Calm Calm - N/A   Clear
8:52 AM 59.0 °F - 55.0 °F 87% 30.24 in 8.0 mi Calm Calm - N/A   Clear
10:52 AM 75.0 °F - 57.9 °F 55% 30.24 in 10.0 mi SSE 6.9 mph - N/A   Clear
11:52 AM 78.1 °F - 57.0 °F 48% 30.23 in 10.0 mi SSW 5.8 mph - N/A   Clear
12:52 PM 80.1 °F 80.2 °F 55.9 °F 43% 30.21 in 10.0 mi South 8.1 mph - N/A   Clear
1:52 PM 81.0 °F 80.7 °F 55.0 °F 41% 30.19 in 10.0 mi SSE 8.1 mph - N/A   Clear
2:52 PM 81.0 °F 80.7 °F 55.0 °F 41% 30.19 in 10.0 mi South 10.4 mph - N/A   Clear
3:52 PM 82.0 °F 81.4 °F 55.0 °F 39% 30.18 in 10.0 mi SSE 8.1 mph - N/A   Clear
4:52 PM 81.0 °F 80.8 °F 55.9 °F 42% 30.18 in 10.0 mi South 8.1 mph - N/A   Clear
5:52 PM 77.0 °F - 57.0 °F 50% 30.18 in 10.0 mi Calm Calm - N/A   Clear
6:52 PM 68.0 °F - 61.0 °F 78% 30.19 in 10.0 mi Calm Calm - N/A   Clear
7:52 PM 66.0 °F - 57.0 °F 73% 30.19 in 10.0 mi Calm Calm - N/A   Clear
8:52 PM 64.0 °F - 57.0 °F 78% 30.20 in 10.0 mi SSE 4.6 mph - N/A   Clear
9:52 PM 64.0 °F - 55.9 °F 75% 30.21 in 10.0 mi SE 5.8 mph - N/A   Clear
10:52 PM 63.0 °F - 55.0 °F 75% 30.21 in 10.0 mi SE 4.6 mph - N/A   Clear
11:52 PM 59.0 °F - 55.0 °F 87% 30.21 in 10.0 mi ESE 4.6 mph - N/A   Clear